Погода в Белогорке

Погода в Белогорке : погода сейчас, прогноз погоды и архив. Всё, что Вы хотите узнать о погоде в Белогорке!

Хотите узнать прогноз погоды в Белогорке? Тогда Вам сюда: Погода в Белогорке

Поиск расширенной информации на нашем сайте:

Полезная информация: окна в частном доме

Другие новости

Новости СМИ2

Главная страница сайта

Новости сайта

02.10.2013

Напоминаем, что на нашем новом сайте вы можете получить высокодетализированные прогнозы погоды по пунктам России, СНГ и мира (включающие важные для авиации метеовеличины, такие как направление и скорость ветра, видимость, явления погоды, количество и форма облачности, нижняя и верхняя граница облачности), а также ознакомиться с разнообразными материалами по авиационной метеорологии и подборкой полезных ссылок на эту тему.

Сайт Метеоцентр.Азия посвящён разработке технологий оптимизации авиаметеорологического обслуживания, включая проектирование и перспективное создание нескольких автоматизированных авиаметеорологических систем:
- система выпуска высокодетальных прогностических карт явлений погоды для нижнего воздушного пространства по России и ближнему зарубежью;
- система верификации прогнозов TAF (выпускаемых синоптиками официальных АМСГ РФ и ближнего зарубежья) и AUTOTAF (выпускаемых сайтом Метеоцентр.Азия) - выявление ошибок, онлайн-сопоставление с фактической погодой METAR, автоматическое внесение коррективов в прогнозы при резком отклонении фактической погоды от прогноза, подсчёт оправдываемости прогнозов по элементам и в целом;
- система обработки, анализа и отображения авиаметеорологической информации для применения провайдерами метеорологической информации.

Рекомендуем: Top 4 магазин шокеров.

Погода в Белогорке - сегодня

Время (UTC), дата Ветер
(°,м/с) 
Видим.   Явления Облачность Т
(°С)
Тd
(°С)
f(%) Тe
(°С)
Pmin
(гПа)
dP
(гПа)
Po
(мм)
O2
(г/м3)
Тmin Tmax R s Состояние
почвы
09 26.04.17 190 (Ю) 6-11{12}  10 км    9/9 420 м кучево-дожд. 
[Cb cap]
+4.1 +0.2 76 +1  1000.9  0.9  743  295           
12 26.04.17 200 (Ю) 7-11{13}  10 км    9/9 420 м кучево-дожд. 
[Cb cap]
+6 -0.7 62 +3  1000.6  -0.3  742  293           
15 26.04.17 210 (ЮЗ) 9-13{17}  10 км  {ливн. осадки}  8/8 420 м кучево-дожд. 
[Cb cap]
+3.8 +1.7 86 1001.7  743  295      0.9     
18 26.04.17 230 (ЮЗ) 6-10{13}  10 км  {ливн. осадки}  8/8 420 м кучево-дожд. 
[Cb cap]
+3.4 +0.8 83 +1  1003.8  2.1  745  296    +6.4  0.9     
21 26.04.17 230 (ЮЗ) 5{12}  20000 м    3/3 600 м 
[Sc]
+1.9 -0.8 82 -1  1006.2  2.3  746  299           
00 27.04.17 230 (ЮЗ) 6{10}  20000 м    8/8 660 м 
[Sc]
+2 -0.8 82 -1  1008.1  1.8  748  299           
03 27.04.17 230 (ЮЗ) 4{10}  10 км    3/3 600 м 
[Sc]
+0 -1.4 90 -2  1008.7  0.5  748  302  -0.1         
06 27.04.17 220 (ЮЗ) 6{10}  10 км    9/9 600 м 
[Sc]
+3.2 +0.1 80 1010  1.4  749  298  -0.1         
09 27.04.17 240 (ЮЗ) 6{11}  10 км    6/6 600 м 
[Sc]
+5.3 -2 59 +3  1010.7  0.8  750  297           
12 27.04.17 270 (З) 4{13}  10 км    4/4 300 м кучево-дожд. 
[Cb cap]
+6.7 -2.2 53 +5  1011.2  0.5  750  295           
15 27.04.17 300 (СЗ) 3{13}  10 км    8/8 300 м кучево-дожд. 
[Cb cap]
+6.2 +0 64 +5  1012.8  1.5  751  296           
18 27.04.17 290 (З) 10 км    4/3 600 м верхняя 
[Sc|Ci fib]
+3.8 -0 76 +3  1014.3  1.4  752  299    +9.1       
21 27.04.17 250 (З) 20000 м    6/6 660 м 
[Sc]
+1.8 +0.9 94 +1  1015.8  1.4  753  301           
00 28.04.17 тихо ()   20000 м    4/4 600 м 
[Sc]
-1.5 -1.9 97 -2  1017.2  1.2  754  306           
03 28.04.17 тихо ()   10 км    3/0 средняя 
[Ac trans]
-1.1 -1.4 98 -1  1019.2  756  306  -1.7         
06 28.04.17 200 (Ю) 10 км    ясно 
+5.5 +0.9 72 +6  1020.8  1.8  757  299  -1.7         
09 28.04.17 350 (С) 10 км    4/4 600 м 
[Cu hum]
+9.2 -3.5 41 +9  1021.9  1.3  758  296           
12 28.04.17 310 (СЗ) 10 км    8/4 600 м верхняя 
[Cu hum|Ci fib]
+10.8 -6.7 29 +12  1022.2  0.3  758  295           
15 28.04.17 050 (СВ) 10 км    9/0 средняя 
[Ac trans]
+10.2 -6.3 31 +10  1022.1  0.1  758  295           
18 28.04.17 030 (СВ) 10 км    9/0 средняя, верхняя 
[Ac trans|Cs]
+7 -4.3 44 +6  1022.3  0.1  758  298    +11.4       
21 28.04.17 050 (СВ) 20000 м    9/0 средняя 
[Ac As]
+4.8 -4.1 52 +4  1022.6  0.2  759  301           
00 29.04.17 050 (СВ) 20000 м    9/0 средняя 
[Ac As]
+3.9 -4.7 53 +3  1021.8  -0.8  758  302           
03 29.04.17 050 (СВ) 10 км    9/4 600 м средняя 
[Sc|As trans]
+3.9 -2.7 62 +3  1020.3  -1.4  757  301  +3.7         
06 29.04.17 060 (СВ) 5-11{11}  10 км  в посл. час ливневой дождь  10/10 480 м кучево-дожд. 
[Cb cap]
+3.5 +1.4 86 +1  1018.7  -1.6  756  300  +3.5    0.0     
09 29.04.17 060 (СВ) 5-12{15}  4000 м  слаб. ливневой дождь  10/10 420 м кучево-дожд. 
[Cb cap]
+3 +1.9 92 +1  1016.3  -2.4  754  300           
Время (UTC), дата Ветер
(°,м/с) 
Видим.   Явления Облачность Т
(°С)
Тd
(°С)
f(%) Тe
(°С)
Pmin
(гПа)
dP
(гПа)
Po
(мм)
O2
(г/м3)
Тmin Tmax R s Состояние
почвы

Для получения пояснительной информации подведите курсор к названию столбца.

ПОГОДА в Белогорке - архив

Всё, что Вы хотите узнать о погоде в Белогорке - удобно и подробно!

Выберите нужную дату (начиная с 1 января 2015* года) и нажмите кнопку "Найти".
Будут отображены архивные сводки погоды по пункту Белогорка, начиная с указанной даты.


Отображать данные в формате CSV (для использования в таблицах Excel)


Внимание! Наш архив погоды предназначен исключительно для личного некоммерческого использования в познавательных целях. Если Вам необходимы официальные справки о состоянии погоды (для производственных, юридических, коммерческих и т.п. целей), обращайтесь в органы Росгидромета.

*Примечание: данная дата относится к архиву по метеостанциям СССР (Россия, СНГ, Балтия).
Архив по метеостанциям Зарубежной Европы и Азии (кроме Китая) хранится 10 дней, по другим регионам земного шара (Китай, Африка, Америка, Австралия, Океания) - 1 день.

Белогорка - район местоположения метеостанции


Название, широта, долгота, высота метеостанции:
Белогорка 59.3°ш. 30.1°д. 90 м над ур. моря [Российская Федерация]

Дополнительная информация

В oтличие oт бoльшинства пoгoдных сайтoв мы публикуем пoдрoбную метеoинфoрмацию в детальнoм прoфессиoнальнoм фoрмате.

Характеристики температуры и влажнoсти вoздуха измеряются на высoте 2 м в тени вдали oт зданий и деревьев.
Скoрoсть ветра измеряется на высoте 10 м (на урoвне рoста челoвека скoрoсть ветра ниже в 1.5-2 раза). Если метеoстанция нахoдится в гoрoде или в лесу, тo скoрoсть ветра занижена на 2-4 м/с пo сравнению с oткрытым местoм. Скoрoсть ветра над акватoриями крупных рек и oзёр, а также на вершинах хoлмoв на 2-5 м/с выше, чем в oбычных услoвиях.
Атмoсфернoе давление в разных тoчках местнoсти мoжет значительнo oтличаться oт давления на метеoстанции, в зависимoсти oт услoвий рельефа (при пoдъёме на 10 м давление пoнижается примернo на 1 мм рт.ст.).